Weather History for PHJR - August, 2013

Change the Weather History Date:

Wednesday, August 28, 2013

  Actual Average (PHNL) Record (PHNL)
Temperature  
Mean Temperature 80 °F 82 °F  
Max Temperature 86 °F 89 °F 92 °F (1970)
Min Temperature 73 °F 75 °F 69 °F (1979)
Degree Days  
Heating Degree Days 0 0  
Month to date heating degree days 0  
Since 1 June heating degree days 0  
Since 1 July heating degree days 0  
Cooling Degree Days 14 17  
Month to date cooling degree days 476  
Year to date cooling degree days 2936  
Since 1 June cooling degree days 1434  
Growing Degree Days 30 (Base 50)    
Moisture  
Dew Point 65 °F    
Average Humidity 64    
Maximum Humidity 79    
Minimum Humidity 46    
Precipitation  
Precipitation 0.00 in 0.02 in 0.16 in (1960)
Month to date precipitation 0.50  
Year to date precipitation 8.84  
Snow  
Snow 0.00 in - - ()
Month to date snowfall  
Since 1 June snowfall  
Since 1 July snowfall  
Snow Depth -    
Sea Level Pressure  
Sea Level Pressure 30.00 in    
Wind  
Wind Speed 3 mph (SSW)    
Max Wind Speed 10 mph    
Max Gust Speed -    
Visibility 10 miles    
Events      
T = Trace of Precipitation, MM = Missing Value Source: NWS Daily Summary

Daily Weather History Graph

Daily Weather History Graph

Search for Another Location

Airport or City:

Trip Planner

Search our weather history database for the weather conditions in past years. The results will help you decide how hot, cold, wet, or windy it might be!

Date:

Astronomy

Aug. 28, 2013 Rise Set
Actual Time 6:14 AM HST 6:51 PM HST
Civil Twilight 5:52 AM HST 7:14 PM HST
Nautical Twilight 5:25 AM HST 7:40 PM HST
Astronomical Twilight 4:58 AM HST 8:07 PM HST
Moon No Moon Rise 1:18 PM HST
Length of Visible Light 13h 21m
Length of Day
12h 36m
Last Quarter, 45% of the Moon is Illuminated
Aug 28
Last Quarter
Sep 5
New
Sep 12
First Quarter
Sep 19
Full
Sep 26
Last Quarter

Hourly Weather History & Observations

Time (HST) Temp. Heat Index Dew Point Humidity Pressure Visibility Wind Dir Wind Speed Gust Speed Precip Events Conditions
12:53 AM 73.9 °F - 64.9 °F 73% 30.06 in 10.0 mi Calm Calm - N/A   Clear
1:53 AM 73.9 °F - 64.9 °F 73% 30.05 in 10.0 mi Variable 4.6 mph - N/A   Clear
2:53 AM 73.9 °F - 64.0 °F 71% 30.04 in 10.0 mi Calm Calm - N/A   Clear
3:53 AM 73.0 °F - 64.0 °F 73% 30.02 in 10.0 mi Calm Calm - N/A   Clear
4:53 AM 73.0 °F - 63.0 °F 71% 30.02 in 10.0 mi Calm Calm - N/A   Clear
5:53 AM 73.9 °F - 64.0 °F 71% 30.03 in 10.0 mi Variable 4.6 mph - N/A   Clear
6:53 AM 75.0 °F - 64.0 °F 69% 30.04 in 10.0 mi Calm Calm - N/A   Clear
7:53 AM 79.0 °F - 64.9 °F 62% 30.04 in 10.0 mi Variable 5.8 mph - N/A   Clear
8:53 AM 82.0 °F 83.4 °F 64.0 °F 54% 30.04 in 10.0 mi Variable 5.8 mph - N/A   Clear
9:53 AM 84.9 °F 85.9 °F 63.0 °F 48% 30.04 in 10.0 mi Variable 6.9 mph - N/A   Clear
10:53 AM 84.0 °F 85.8 °F 64.9 °F 53% 30.01 in 10.0 mi SW 10.4 mph - N/A   Clear
11:53 AM 84.0 °F 84.9 °F 63.0 °F 49% 30.00 in 10.0 mi SW 8.1 mph - N/A   Clear
12:53 PM 86.0 °F 86.8 °F 63.0 °F 46% 29.98 in 10.0 mi SW 9.2 mph - N/A   Clear
1:53 PM 86.0 °F 87.3 °F 64.0 °F 48% 29.96 in 10.0 mi SSW 10.4 mph - N/A   Partly Cloudy
2:53 PM 86.0 °F 87.6 °F 64.9 °F 49% 29.95 in 10.0 mi South 6.9 mph - N/A   Scattered Clouds
3:53 PM 82.0 °F 83.8 °F 64.9 °F 56% 29.95 in 10.0 mi SE 5.8 mph - N/A   Overcast
4:53 PM 82.0 °F 84.9 °F 68.0 °F 62% 29.95 in 10.0 mi Calm Calm - N/A   Mostly Cloudy
5:53 PM 79.0 °F - 64.9 °F 62% 29.96 in 10.0 mi North 3.5 mph - N/A   Overcast
6:53 PM 78.1 °F - 66.9 °F 68% 29.96 in 10.0 mi NE 4.6 mph - N/A   Clear
7:53 PM 77.0 °F - 68.0 °F 74% 29.99 in 10.0 mi Variable 3.5 mph - N/A   Clear
8:53 PM 75.0 °F - 66.9 °F 76% 29.99 in 10.0 mi Calm Calm - N/A   Clear
9:53 PM 75.0 °F - 66.9 °F 76% 29.99 in 10.0 mi Calm Calm - N/A   Clear
10:53 PM 75.0 °F - 68.0 °F 79% 29.98 in 10.0 mi Variable 4.6 mph - N/A   Clear
11:53 PM 75.0 °F - 66.9 °F 76% 29.98 in 10.0 mi Calm Calm - N/A   Clear